Theta_e
299 301 302 302 301 302 301 301 297 300 302 307 311 312 312 318 320 319 318 318 318 318 318 318 317 317 316 316 315 314 311 311 312 314 314 313 313 312 313 314 312 311 311 310
292 295 297 296 299 301 302 302 302 302 303 311 312 311 311 316 319 319 318 317 318 318 318 317 317 316 316 315 315 314 311 311 313 313 313 313 313 313 313 313 314 312 311 311
288 296 297 292 299 300 302 304 304 301 306 312 312 313 312 316 318 319 319 318 317 317 317 318 317 318 315 315 315 313 311 312 312 313 312 313 312 312 312 313 313 312 311 311
290 293 284 295 306 306 304 305 308 308 310 312 313 315 314 315 318 321 321 319 319 318 318 318 318 317 318 316 315 313 313 311 312 312 312 313 313 312 313 313 313 313 313 313
290 292 295 297 300 303 302 302 308 307 309 311 315 315 314 317 318 321 324 323 321 319 318 318 317 318 316 315 314 311 312 309 312 313 313 312 312 313 313 312 312 312 313 312
293 288 286 299 307 311 309 298 309 309 309 310 312 307 311 317 318 320 324 323 319 318 317 317 317 318 316 314 313 309 312 312 313 314 313 312 313 312 312 312 311 311 312 313
291 288 293 305 308 311 296 298 309 311 311 311 309 312 316 319 316 320 322 320 318 317 316 316 317 318 315 314 312 310 313 313 314 314 314 314 313 312 312 311 311 312 312 314
291 287 286 305 305 300 302 307 308 308 311 311 314 315 316 318 314 314 317 317 316 315 314 315 317 317 315 313 315 313 313 313 313 314 312 311 312 311 311 311 311 312 312 312
298 297 306 307 305 308 304 303 304 304 308 311 313 314 316 317 313 312 314 315 315 314 312 314 316 317 314 314 314 313 314 313 313 314 312 311 310 310 309 311 310 310 309 309
295 302 302 301 305 303 301 300 301 302 304 310 312 315 316 317 313 313 313 312 313 312 311 312 315 315 316 314 315 314 313 313 312 311 309 310 309 310 311 311 310 310 309 308
292 295 298 303 304 299 299 301 300 302 302 304 313 316 317 315 313 313 311 311 311 312 312 312 313 315 315 315 315 313 313 311 310 309 309 310 311 312 311 313 306 308 309 310
286 294 294 295 298 300 298 298 299 299 299 302 309 317 317 315 315 313 311 311 311 312 311 311 313 313 314 315 315 313 310 308 307 308 309 310 311 311 293 293 292 292 293 299
293 297 297 298 299 299 298 299 300 300 302 302 312 319 316 314 313 311 312 311 310 310 312 312 312 312 314 315 314 312 310 308 308 308 309 310 311 310 308 298 292 291 291 292
297 297 295 296 296 299 300 301 301 302 307 311 318 318 315 313 311 310 310 310 311 312 312 312 312 311 313 313 313 311 310 301 309 309 310 311 310 310 309 306 304 303 293 295
295 297 298 299 299 299 302 301 300 304 306 313 317 315 313 311 310 310 310 311 312 312 311 312 311 311 313 312 311 310 309 309 310 311 309 308 310 310 308 305 304 302 301 298
295 296 297 297 297 298 299 299 300 302 304 314 313 310 310 312 310 309 309 311 311 310 311 311 311 312 312 312 311 310 310 303 305 310 308 308 309 308 305 304 303 303 303 302
294 293 295 296 297 297 298 300 301 302 306 315 316 309 307 307 306 306 308 311 311 311 311 311 311 312 312 312 311 310 310 309 302 310 310 308 307 305 305 304 303 303 301 297
303 303 303 305 302 299 299 300 301 302 308 316 313 307 304 304 304 306 308 308 309 309 311 312 312 312 312 312 312 311 310 310 310 310 310 307 306 306 305 304 303 301 300 297
303 304 306 304 302 300 300 300 302 307 316 313 308 305 306 305 305 306 307 306 307 306 308 311 302 309 311 308 309 310 310 310 310 309 306 299 304 305 304 303 302 301 300 299
302 304 305 306 301 301 300 302 306 312 310 309 308 306 305 304 305 306 306 305 307 308 311 308 311 312 311 306 301 310 310 310 309 306 304 304 304 304 302 297 301 300 300 300
300 302 302 304 307 304 303 304 312 311 309 309 308 308 307 307 307 306 304 303 307 307 309 304 311 311 310 306 307 310 309 308 306 304 303 303 303 303 302 301 300 299 299 299
300 302 303 305 307 308 306 307 315 310 309 309 309 309 307 306 306 308 309 306 306 298 306 310 311 301 306 296 310 309 307 306 304 303 303 303 302 302 301 300 299 299 299 299
302 304 304 307 307 307 311 315 313 310 308 309 308 308 307 307 307 305 303 306 308 302 310 310 294 289 289 310 309 307 305 304 303 303 302 302 302 301 300 300 299 299 298 297
302 304 308 310 311 313 312 312 312 311 309 309 310 311 309 306 307 308 305 298 294 300 308 301 294 288 293 307 306 305 303 303 302 302 301 294 301 300 300 299 298 298 297 294
302 307 313 314 314 310 313 310 309 309 309 309 309 310 311 310 307 307 307 307 293 303 305 287 288 289 305 305 304 303 302 301 301 301 300 300 300 299 299 298 297 295 294 292
305 311 315 315 314 311 310 311 308 307 307 307 308 309 309 309 306 307 307 304 308 300 305 302 305 306 305 304 302 302 301 299 300 300 299 300 300 298 297 296 294 292 290 289
312 306 312 311 311 309 308 308 307 306 307 306 305 307 306 306 306 306 301 307 307 307 306 304 304 302 302 302 301 301 301 301 296 300 300 300 298 297 295 294 291 289 289 289
Wind_Speed
10 12 15 16 16 15 14 15 11 15 17 19 23 19 19 10 10 15 17 20 21 20 20 20 19 18 17 16 15 14 14 13 12 10 9 7 6 5 5 5 6 5 5 5
14 13 16 21 20 16 18 19 19 20 21 9 12 14 14 13 14 15 17 20 20 19 20 21 21 20 19 18 16 15 14 13 11 11 10 8 6 5 5 5 6 6 6 6
6 6 12 15 17 19 17 11 9 14 12 17 21 15 15 14 18 20 20 20 22 24 22 20 21 19 19 18 17 16 13 13 13 12 10 8 7 6 6 5 5 6 6 5
7 7 9 6 5 9 10 10 7 6 8 12 17 19 18 12 14 16 17 18 19 18 18 19 19 19 18 19 17 17 14 12 13 11 10 8 7 7 5 5 5 5 5 6
5 8 13 15 12 6 8 9 2 8 12 14 18 17 2 15 10 10 12 13 14 16 16 18 19 19 20 18 18 15 14 12 13 11 9 9 7 7 5 5 5 5 5 6
3 4 7 4 3 2 3 8 9 13 14 17 16 10 4 23 19 8 10 12 15 18 18 18 18 19 19 19 18 15 15 12 12 10 10 9 7 6 4 5 5 4 6 7
9 8 10 6 8 5 7 7 16 14 13 13 10 9 18 20 14 6 7 14 16 19 17 18 18 19 19 19 18 13 14 12 12 10 9 7 6 5 5 5 4 5 7 8
7 8 10 10 0 2 6 8 11 14 14 14 14 17 16 17 10 3 6 13 16 16 16 17 18 17 19 18 16 13 15 13 12 11 8 6 7 5 5 4 6 6 7 8
6 3 5 6 6 7 9 12 14 17 19 18 17 18 17 15 6 3 8 10 11 15 18 16 17 17 18 16 17 15 15 13 12 9 7 7 7 5 4 5 5 6 6 6
4 4 2 13 2 6 13 15 18 17 18 15 18 18 17 13 5 6 9 11 11 15 16 17 16 16 15 17 17 17 15 12 10 9 8 6 4 4 4 4 5 5 5 4
10 15 14 6 5 17 20 18 20 18 16 17 16 20 16 11 9 9 9 11 13 14 15 17 17 16 17 17 17 16 13 11 9 7 8 6 4 1 3 3 4 5 3 2
11 10 12 19 15 17 20 21 21 19 19 18 14 16 15 11 8 10 12 13 13 14 16 17 17 17 17 16 16 15 13 10 8 8 7 5 4 5 9 6 5 4 4 4
19 15 16 19 18 21 22 20 20 20 18 18 19 12 11 8 9 10 12 13 14 16 17 18 17 17 16 15 15 14 12 11 8 7 5 5 4 4 4 4 10 12 8 7
16 14 21 23 18 18 20 20 19 18 16 15 16 11 7 7 9 12 13 13 14 18 18 18 18 16 15 15 14 14 13 10 9 7 5 5 4 3 3 5 5 6 10 7
23 23 24 22 22 21 19 16 17 16 14 15 10 8 8 10 12 13 13 16 17 19 18 17 17 16 15 14 14 13 11 9 8 6 5 4 3 2 5 6 6 6 7 7
19 20 21 21 21 20 19 18 15 14 13 14 8 7 9 10 11 13 14 17 18 17 17 17 16 16 15 14 14 12 10 10 6 6 5 4 3 4 6 6 6 5 5 4
20 22 21 22 20 21 21 16 12 15 16 11 11 8 10 11 12 13 14 15 15 15 15 17 17 16 15 14 13 10 9 8 5 4 4 4 5 5 5 5 6 6 6 6
16 17 18 21 21 19 18 15 15 16 15 11 8 12 13 14 13 14 16 13 14 15 14 15 16 15 15 14 12 10 9 8 6 3 4 5 6 6 6 6 7 6 6 6
18 19 18 18 18 19 17 14 14 15 11 11 11 11 12 12 10 13 14 14 15 15 13 16 14 15 14 12 11 9 8 7 5 5 6 7 7 7 7 6 6 5 5 4
20 18 15 15 15 16 15 12 10 5 5 9 10 11 13 12 14 12 12 12 10 11 14 15 15 14 13 11 9 8 6 5 5 7 7 7 7 7 7 7 6 5 5 5
18 15 16 16 15 15 14 11 9 9 9 10 11 13 16 16 12 13 13 10 10 14 12 13 12 11 10 9 8 7 5 5 7 8 7 8 8 8 7 6 6 5 5 4
15 13 14 15 14 14 13 11 13 11 11 10 11 14 16 15 12 11 11 13 10 14 10 10 10 11 10 10 7 6 6 7 8 8 8 7 7 7 7 6 6 5 5 4
14 13 14 15 13 13 11 13 14 13 12 11 13 14 13 11 10 12 11 9 11 12 11 10 10 10 9 7 6 7 9 9 9 9 8 7 7 7 6 6 6 5 5 4
12 13 13 12 10 11 13 13 14 13 13 12 12 14 14 11 9 8 10 10 15 12 10 10 10 10 7 7 8 9 9 10 10 9 9 8 8 8 7 6 6 5 5 4
12 11 9 11 11 6 12 14 12 13 14 12 11 13 14 11 11 11 11 10 14 12 11 9 10 8 8 9 9 10 10 9 9 9 9 9 8 7 7 6 6 5 5 5
8 5 7 9 10 8 8 8 9 9 11 11 10 12 12 11 11 11 11 13 13 14 12 10 9 9 10 11 11 11 11 11 10 9 9 9 9 7 7 7 6 5 5 4
4 5 6 7 8 9 9 9 11 11 11 11 12 11 12 11 12 13 13 13 12 12 10 9 9 10 11 11 11 11 10 10 9 10 10 9 8 7 7 7 6 5 5 5
Wind_Direction
290 290 286 276 272 278 261 261 257 279 273 275 285 294 297 243 214 181 181 185 187 187 181 178 178 176 172 173 173 171 172 183 186 183 178 186 205 219 222 222 218 224 225 228
289 279 272 276 272 260 260 261 254 258 273 309 321 314 266 211 193 208 197 192 188 184 182 181 180 178 171 171 172 171 178 184 185 182 179 194 198 207 207 213 228 223 229 245
268 311 315 280 252 250 252 250 252 257 291 322 309 306 287 253 196 203 203 194 186 187 184 181 179 175 173 168 167 177 182 176 184 186 182 194 197 202 210 215 217 227 233 247
283 287 251 273 288 275 264 260 218 278 324 325 315 297 288 277 249 240 190 189 189 184 181 179 172 171 166 165 169 175 179 177 185 185 185 193 202 210 207 223 226 238 239 253
246 234 284 292 284 285 270 301 61 337 341 338 334 298 321 32 328 274 244 196 182 174 171 167 171 169 166 166 168 168 176 177 183 184 187 192 207 206 204 217 234 247 251 262
153 246 265 34 48 315 297 267 7 338 321 333 340 319 20 341 333 289 199 178 169 162 161 163 165 164 165 167 166 170 174 180 178 179 188 195 203 194 193 225 247 249 257 262
226 247 268 356 334 289 243 355 339 337 328 326 324 309 307 312 324 302 182 158 159 156 163 162 160 160 168 166 172 162 163 172 169 171 185 188 183 184 191 217 244 253 267 274
203 229 257 22 93 320 354 322 334 344 339 319 320 316 312 310 324 321 163 156 159 152 155 156 161 163 164 170 160 153 159 167 167 173 179 172 175 167 201 223 245 264 274 285
219 220 104 25 338 72 3 340 337 338 328 320 321 312 316 306 306 225 182 166 162 151 147 157 165 166 163 156 153 153 156 166 159 166 175 164 165 184 209 229 258 274 286 306
319 132 351 304 228 1 344 332 321 319 320 315 304 306 309 294 254 205 190 161 158 154 151 156 163 165 152 152 153 155 161 157 152 162 160 160 180 207 241 258 279 292 308 332
271 281 305 297 244 332 325 323 318 316 310 316 304 304 309 275 227 198 187 162 165 160 153 154 158 152 151 152 153 155 153 145 150 154 174 166 212 269 285 325 329 313 332 30
263 300 287 284 301 310 308 309 306 311 306 303 295 289 297 262 223 194 182 171 161 153 151 152 150 144 147 152 152 150 142 150 157 160 166 176 178 144 56 36 26 2 259 346
258 266 266 276 283 286 287 293 300 302 293 291 289 287 262 226 202 188 178 170 161 154 151 144 141 141 144 149 151 146 150 153 152 161 165 182 185 179 170 117 79 56 62 66
246 254 267 272 278 290 288 286 292 291 284 275 282 283 236 200 180 182 175 162 157 147 144 140 139 141 146 148 147 150 153 141 157 160 181 185 163 176 171 160 127 102 54 70
256 255 259 270 277 280 279 284 291 290 303 292 264 241 197 187 192 176 160 152 148 143 139 139 139 142 146 147 149 147 147 152 158 158 178 162 157 161 144 130 119 121 128 119
260 260 265 267 271 274 278 284 276 287 302 296 232 201 196 191 171 156 153 154 145 146 146 143 140 144 143 147 145 149 151 145 151 150 149 169 148 136 129 125 127 124 112 89
271 272 272 267 262 263 268 270 277 289 298 271 238 171 153 149 150 142 150 147 134 137 140 141 137 142 147 145 151 150 148 149 139 158 161 151 138 133 123 131 125 112 96 68
266 269 265 272 262 256 259 266 281 289 285 253 191 155 146 152 149 150 135 131 131 130 137 136 141 143 148 148 146 142 146 147 162 160 138 137 128 121 121 120 121 119 111 99
280 271 270 279 249 242 253 263 272 285 272 181 157 154 149 131 132 136 130 136 129 135 141 141 131 142 146 141 146 141 140 149 150 124 113 121 124 121 123 122 116 107 93 77
290 278 283 282 254 239 242 246 263 172 157 146 133 130 118 126 140 137 127 112 143 137 142 140 146 145 139 147 148 145 147 147 122 127 131 124 121 122 111 101 110 100 84 65
293 288 278 268 259 243 231 225 180 153 154 130 142 146 143 140 141 126 120 130 137 129 127 136 155 140 139 140 161 147 145 120 124 126 127 112 124 122 121 118 106 94 80 64
291 280 272 263 260 242 217 208 169 146 135 141 148 142 140 130 133 130 137 130 127 125 145 148 152 134 133 159 147 134 123 121 120 113 110 115 119 119 119 117 105 90 76 56
291 277 268 259 243 220 191 174 153 145 134 150 151 148 138 138 142 134 123 122 137 142 148 147 122 116 138 154 133 127 122 118 112 107 106 113 111 114 117 106 95 82 66 43
290 278 265 243 200 174 156 148 150 142 136 153 153 145 139 129 119 108 111 128 127 149 137 128 122 128 146 131 127 123 123 119 113 111 108 106 109 112 109 104 90 77 67 33
291 270 214 171 147 121 139 133 116 119 130 128 137 141 134 131 128 135 134 132 137 137 126 112 121 132 128 119 124 123 116 115 114 114 114 112 111 107 101 91 79 65 51 36
278 205 176 171 132 138 138 135 114 125 125 131 138 133 120 120 116 120 126 138 138 130 127 140 137 126 119 122 121 116 110 117 120 114 114 109 103 101 97 93 84 66 51 42
178 143 113 109 123 136 127 160 148 142 134 141 129 126 118 122 122 126 129 133 135 128 129 129 127 122 124 122 116 114 111 110 113 119 115 111 106 102 94 86 80 75 59 44